Wind_Speed
7 7 6 6 6 6 6 5 5 4 5 5 5 5 6 6 6 6 7 7 8 8 8 8 8 8 8 9 9 9 10 11 10 10 9 9 10 9 9 9 9 8 9
7 8 8 8 7 7 7 7 6 6 6 6 7 7 7 7 7 8 8 8 9 9 9 9 9 10 10 10 10 10 10 11 11 11 11 11 11 10 9 9 10 9 9
8 8 8 8 8 8 8 8 8 8 7 7 8 8 8 8 8 8 8 9 9 9 9 10 10 10 11 11 11 11 11 11 11 12 12 12 11 10 10 10 10 10 9
9 9 9 9 9 8 9 9 9 9 9 9 9 9 9 9 9 9 9 9 9 9 9 9 10 11 11 11 11 11 12 12 12 12 12 12 12 12 11 11 11 10 10
10 10 10 9 9 9 9 9 10 10 10 10 10 9 10 9 10 9 10 10 10 10 10 10 11 11 11 11 12 12 12 12 13 13 13 13 13 13 12 12 11 11 11
11 11 10 10 10 10 10 10 10 10 10 10 10 10 10 10 10 11 11 12 12 12 12 12 11 11 11 11 11 11 11 12 13 14 14 14 13 13 13 13 12 11 11
12 11 12 12 11 11 11 12 12 11 10 10 10 11 10 11 11 12 12 13 13 13 12 12 11 12 11 11 12 12 12 12 14 14 14 14 14 14 13 13 13 13 13
13 12 12 12 12 13 12 12 12 12 11 11 11 12 11 12 12 12 13 14 14 13 13 13 13 12 12 12 12 13 12 13 13 14 14 14 14 15 14 14 14 14 14
14 13 13 13 13 14 13 13 13 13 13 13 13 13 13 13 13 13 14 14 14 15 14 14 14 14 14 14 14 14 14 14 14 14 14 14 14 15 15 15 15 15 15
14 14 14 14 14 14 14 14 14 14 14 14 14 14 15 15 15 14 14 15 14 15 15 15 15 16 15 15 15 15 15 14 14 15 15 16 15 15 15 15 15 16 16
14 14 14 14 14 15 15 15 15 16 16 15 15 16 17 17 16 15 15 15 15 15 15 16 16 16 16 16 15 15 16 16 16 16 16 17 17 16 17 17 16 17 17
15 15 15 15 15 15 15 15 16 16 16 16 17 17 17 17 17 17 17 15 15 16 16 16 16 16 16 17 17 16 17 17 17 17 17 18 18 18 18 18 19 18 19
16 16 15 15 15 15 15 15 15 15 16 17 18 18 19 19 19 19 18 17 17 16 16 16 16 17 17 18 19 18 19 19 19 19 19 19 20 20 20 20 20 20 20
17 16 16 16 16 16 16 17 17 17 17 18 18 19 20 20 20 20 19 18 18 18 17 17 17 18 18 18 18 19 19 19 20 20 20 20 22 22 22 22 22 22 22
18 18 17 18 18 18 18 18 18 18 19 19 20 20 20 20 20 21 20 20 20 20 19 19 19 19 20 20 19 20 20 20 20 21 22 22 23 23 23 23 24 24 23
19 19 19 19 19 19 19 19 20 20 20 20 21 21 21 21 21 21 21 21 21 21 21 21 22 22 22 22 21 21 21 21 22 22 22 23 24 24 24 24 24 24 24
20 20 20 20 20 20 20 20 21 21 21 21 21 22 22 22 22 22 23 23 23 23 23 22 23 22 23 23 23 23 23 23 23 23 23 24 24 25 25 25 25 25 25
22 21 21 21 21 21 21 22 22 23 22 22 23 23 23 24 24 24 24 25 25 24 24 24 25 25 24 24 24 24 24 25 25 25 24 25 25 26 26 26 26 26 27
23 23 22 22 22 23 23 23 23 24 24 24 24 24 25 25 26 26 25 26 26 26 26 26 26 26 26 26 26 26 26 26 26 26 26 26 26 27 28 28 29 29 29
23 23 23 24 24 24 24 24 25 25 25 26 27 27 27 27 27 26 26 26 27 27 27 27 27 27 27 27 27 27 27 27 27 27 26 26 26 27 28 29 30 30 31
24 25 25 25 25 25 26 26 26 26 27 27 27 27 27 28 27 27 27 27 27 27 27 28 27 28 28 28 28 28 27 27 27 28 27 27 27 27 27 28 29 30 31
26 26 26 27 27 27 28 28 28 28 29 28 28 28 28 28 28 27 27 28 28 28 28 27 27 28 29 29 30 29 29 29 28 28 28 29 28 28 28 28 28 29 29
26 26 27 28 29 29 29 29 30 29 29 29 29 30 30 29 29 28 27 28 27 28 28 28 28 28 29 29 29 29 29 29 28 28 29 29 29 29 29 29 29 29 29
27 27 28 29 29 30 30 29 29 29 29 28 28 28 28 28 28 28 28 28 28 27 27 28 28 29 29 28 29 29 29 29 29 29 29 29 29 29 28 29 29 28 28
28 28 28 29 30 30 29 30 29 29 28 28 28 28 28 28 29 29 29 29 29 29 29 28 28 28 28 28 28 28 28 27 28 28 28 28 28 28 28 28 29 29 30
30 29 29 29 30 30 30 30 30 29 28 28 29 29 29 29 29 29 29 29 29 29 28 28 28 28 28 28 28 28 29 29 29 29 29 29 29 29 29 29 30 30 31
Wind_Direction
338 335 332 328 328 329 325 326 315 305 304 301 299 296 290 286 287 283 285 282 280 279 280 279 276 273 273 272 273 269 266 263 267 264 265 269 269 265 269 273 275 270 268
329 330 329 329 324 323 318 317 316 312 308 301 301 297 292 289 289 293 288 284 279 276 277 277 276 273 270 271 273 272 270 267 264 263 263 266 269 264 266 269 271 267 265
327 325 327 325 319 315 313 312 310 308 306 300 297 296 293 295 296 293 288 282 278 276 275 277 275 274 271 271 272 272 271 267 265 262 261 261 263 262 263 265 266 266 263
327 326 325 326 323 317 315 311 305 302 301 300 298 294 291 293 292 291 293 292 287 281 280 282 277 276 275 273 271 271 268 270 266 263 259 258 259 259 260 263 267 266 266
322 322 322 323 320 317 317 315 312 307 304 302 300 295 293 291 292 295 293 293 291 286 283 286 284 280 282 277 273 273 271 272 268 265 261 258 258 260 260 261 262 263 263
320 320 317 316 315 313 311 311 313 310 306 303 303 301 298 296 291 292 291 290 291 290 284 284 285 287 286 282 279 278 278 274 271 270 264 258 257 259 260 259 260 259 260
315 314 313 313 313 312 311 309 309 307 306 306 304 303 302 296 293 289 289 291 290 291 287 282 284 286 285 284 283 280 278 275 275 272 266 259 258 260 260 259 258 259 258
312 312 310 310 311 310 309 308 306 305 304 303 303 303 301 298 295 292 292 291 291 290 288 286 285 286 286 286 283 279 276 276 275 270 268 266 263 262 262 261 259 259 259
313 309 306 307 309 308 305 304 304 306 305 302 301 300 298 296 294 293 290 291 289 286 284 286 286 285 284 282 282 278 276 276 275 270 269 268 265 262 264 265 262 261 261
314 312 309 308 306 305 304 304 304 303 301 301 300 298 297 297 295 297 293 291 289 287 284 285 285 284 284 283 283 282 278 278 275 270 269 267 264 262 263 265 265 262 261
314 311 310 306 303 303 304 304 302 300 298 299 298 297 297 297 297 297 296 292 290 289 286 284 285 284 282 282 282 284 279 277 275 273 270 267 263 262 262 264 264 262 261
315 313 308 305 304 303 303 303 302 300 299 297 297 298 298 298 299 297 298 297 293 290 285 285 287 286 282 281 283 282 278 275 273 271 269 268 264 262 263 264 264 262 260
313 310 308 308 308 305 304 304 305 303 302 299 298 298 299 297 295 295 296 294 290 288 286 286 289 290 286 282 281 281 280 275 273 270 268 267 264 262 262 263 263 262 261
311 311 309 306 304 304 303 303 303 302 302 302 303 301 299 298 297 294 294 293 290 287 286 286 288 287 285 284 282 281 281 277 274 271 270 268 266 263 262 262 264 263 262
313 311 308 305 303 301 301 302 302 301 300 300 301 301 300 298 296 292 291 291 290 288 287 287 286 286 285 283 282 281 279 277 276 273 271 267 266 264 262 263 264 264 262
312 310 307 304 303 302 302 301 301 302 302 301 300 299 298 296 295 293 290 289 289 288 288 288 287 285 283 282 280 279 277 275 275 275 273 269 267 266 264 264 264 263 262
309 308 307 303 301 300 299 300 300 301 303 303 302 299 297 296 295 293 291 290 289 288 288 288 287 285 282 281 280 279 277 276 276 275 273 270 268 266 264 264 263 262 262
308 307 306 303 303 302 300 300 301 302 302 300 300 300 299 295 293 292 290 290 289 287 287 286 285 284 283 281 280 279 278 277 276 275 274 272 269 266 264 262 262 262 262
305 305 305 305 304 303 303 302 302 302 302 301 300 298 298 298 295 293 291 290 288 287 286 287 287 285 284 282 280 279 278 278 277 276 275 274 272 269 265 263 261 260 260
304 305 305 304 304 305 305 303 302 302 300 299 299 298 297 297 296 294 293 292 290 288 286 286 287 285 284 282 281 280 279 278 277 277 275 274 273 270 267 265 262 261 261
305 305 304 303 303 304 303 302 301 301 301 300 299 298 297 297 296 295 293 291 290 289 287 286 286 286 284 283 281 281 280 278 276 276 275 274 272 272 270 267 263 262 262
303 303 303 302 302 302 302 302 302 300 300 299 298 298 297 296 296 296 295 293 290 289 288 288 288 287 286 284 281 279 279 279 277 276 276 275 273 273 272 270 266 264 264
302 303 303 302 303 303 302 301 300 301 300 298 297 296 295 295 294 293 293 293 291 290 289 289 289 289 288 286 284 282 280 279 277 277 276 276 275 273 272 270 268 267 265
301 301 303 303 303 302 302 302 302 301 300 298 297 297 296 296 294 292 292 292 292 291 291 291 289 288 288 287 285 283 281 280 279 278 275 274 273 271 270 269 268 267 265
299 300 301 301 302 302 301 301 301 300 298 297 297 297 296 296 295 294 293 292 291 290 290 290 290 289 288 287 285 284 282 282 280 278 277 277 275 272 270 268 267 266 265
298 298 299 300 301 302 302 301 301 300 299 298 298 298 297 295 294 295 294 292 291 290 289 288 288 290 289 287 286 285 285 284 283 281 279 277 276 274 272 269 266 264 264
Height
5885 5884 5883 5883 5882 5882 5881 5881 5880 5880 5879 5879 5878 5878 5878 5878 5878 5878 5878 5878 5878 5878 5878 5878 5878 5878 5878 5878 5878 5878 5878 5878 5878 5878 5879 5879 5880 5880 5880 5881 5881 5881 5881
5885 5884 5883 5882 5882 5881 5880 5880 5879 5879 5878 5877 5877 5877 5876 5877 5876 5875 5876 5876 5876 5876 5876 5875 5875 5875 5875 5875 5875 5875 5875 5876 5876 5876 5876 5877 5877 5877 5878 5878 5878 5878 5879
5884 5884 5883 5882 5881 5880 5879 5878 5878 5877 5876 5876 5876 5875 5875 5874 5874 5874 5874 5874 5873 5873 5873 5873 5873 5873 5872 5873 5873 5872 5872 5873 5873 5873 5874 5874 5874 5875 5875 5876 5876 5876 5876
5884 5883 5882 5881 5880 5879 5878 5877 5876 5876 5875 5874 5874 5873 5873 5872 5872 5872 5871 5871 5871 5871 5870 5870 5870 5870 5870 5870 5870 5869 5869 5870 5870 5870 5870 5871 5871 5872 5872 5873 5873 5874 5874
5883 5882 5881 5880 5879 5878 5877 5876 5875 5874 5873 5872 5872 5871 5870 5870 5870 5869 5869 5868 5868 5868 5867 5867 5867 5867 5867 5866 5866 5866 5866 5866 5866 5867 5867 5868 5868 5869 5869 5870 5870 5871 5871
5882 5880 5879 5878 5877 5876 5875 5874 5873 5872 5871 5870 5869 5869 5868 5868 5867 5867 5867 5866 5866 5865 5864 5864 5864 5864 5863 5863 5863 5863 5863 5863 5863 5863 5864 5864 5865 5866 5866 5867 5867 5868 5868
5880 5879 5878 5876 5875 5874 5873 5872 5871 5870 5869 5868 5867 5866 5866 5865 5865 5865 5864 5863 5863 5861 5860 5860 5861 5860 5860 5860 5860 5860 5860 5860 5860 5860 5860 5861 5861 5862 5862 5863 5864 5864 5865
5878 5877 5875 5874 5873 5872 5871 5869 5868 5867 5866 5866 5865 5864 5863 5863 5862 5861 5860 5860 5859 5858 5858 5857 5857 5857 5857 5857 5856 5856 5856 5856 5856 5856 5856 5857 5857 5858 5858 5859 5860 5861 5861
5876 5874 5873 5872 5871 5869 5868 5867 5866 5865 5864 5863 5862 5861 5860 5860 5858 5858 5857 5856 5855 5855 5854 5854 5853 5853 5853 5853 5853 5853 5852 5852 5852 5852 5852 5853 5853 5854 5854 5855 5855 5856 5857
5873 5872 5871 5869 5868 5867 5865 5864 5863 5862 5861 5860 5859 5858 5857 5856 5854 5854 5853 5852 5851 5851 5850 5850 5850 5849 5849 5849 5849 5848 5848 5848 5848 5848 5848 5849 5849 5849 5850 5850 5851 5852 5853
5871 5869 5868 5866 5865 5864 5862 5861 5860 5859 5858 5857 5856 5855 5853 5852 5851 5850 5849 5849 5848 5847 5846 5846 5845 5845 5844 5844 5844 5844 5844 5844 5844 5844 5844 5844 5844 5845 5845 5846 5846 5847 5848
5869 5867 5865 5864 5862 5860 5859 5858 5856 5855 5854 5853 5852 5851 5849 5848 5847 5846 5845 5844 5843 5843 5842 5841 5841 5840 5839 5839 5839 5839 5839 5839 5839 5839 5839 5839 5839 5840 5840 5841 5841 5842 5843
5866 5864 5862 5861 5859 5857 5856 5854 5853 5852 5851 5849 5848 5846 5845 5844 5842 5841 5841 5840 5839 5838 5838 5837 5836 5836 5835 5835 5834 5834 5834 5834 5834 5834 5834 5834 5834 5834 5835 5836 5836 5837 5837
5862 5860 5859 5857 5856 5854 5852 5851 5850 5848 5847 5845 5843 5842 5840 5839 5837 5836 5836 5835 5834 5834 5833 5832 5831 5831 5830 5830 5829 5829 5829 5828 5828 5828 5828 5828 5828 5829 5829 5830 5830 5831 5831
5859 5857 5855 5854 5852 5850 5849 5847 5845 5844 5842 5841 5839 5837 5835 5834 5832 5831 5830 5830 5829 5828 5828 5827 5826 5825 5825 5824 5824 5823 5823 5823 5822 5822 5822 5822 5822 5822 5823 5823 5824 5824 5825
5855 5853 5851 5850 5848 5846 5844 5843 5841 5839 5838 5836 5834 5832 5831 5829 5827 5826 5825 5824 5823 5822 5822 5821 5820 5820 5819 5818 5818 5817 5817 5817 5816 5816 5816 5815 5816 5816 5816 5817 5817 5818 5818
5852 5850 5848 5846 5844 5842 5840 5838 5836 5835 5833 5831 5829 5827 5826 5824 5822 5820 5819 5818 5817 5816 5815 5815 5813 5813 5812 5811 5811 5810 5810 5810 5809 5809 5809 5809 5808 5808 5809 5809 5810 5811 5811
5847 5845 5843 5841 5839 5837 5835 5833 5831 5829 5827 5825 5824 5822 5820 5818 5816 5814 5813 5812 5810 5810 5809 5808 5807 5806 5805 5805 5804 5803 5803 5802 5802 5802 5802 5801 5801 5801 5801 5802 5802 5803 5804
5842 5840 5838 5836 5834 5832 5830 5828 5826 5823 5821 5820 5818 5816 5814 5812 5810 5808 5807 5805 5804 5803 5802 5801 5800 5799 5798 5797 5797 5796 5795 5795 5794 5794 5794 5794 5793 5793 5793 5794 5794 5795 5796
5837 5835 5833 5831 5829 5827 5824 5822 5820 5818 5816 5814 5811 5809 5807 5806 5803 5802 5800 5798 5797 5795 5794 5793 5793 5791 5791 5789 5789 5788 5787 5787 5786 5786 5786 5785 5785 5785 5785 5785 5786 5786 5787
5832 5830 5827 5825 5823 5821 5818 5816 5814 5812 5809 5807 5805 5802 5800 5799 5797 5795 5793 5791 5789 5788 5787 5786 5785 5784 5783 5781 5780 5779 5779 5778 5778 5777 5777 5777 5777 5776 5776 5776 5777 5777 5778
5826 5824 5821 5819 5817 5814 5812 5809 5807 5805 5802 5800 5798 5796 5794 5792 5789 5787 5785 5784 5782 5780 5779 5778 5776 5775 5774 5773 5772 5770 5770 5769 5769 5769 5768 5768 5768 5768 5767 5767 5768 5768 5769
5820 5817 5815 5812 5810 5807 5805 5802 5800 5797 5795 5793 5790 5788 5786 5784 5782 5780 5778 5776 5774 5773 5771 5770 5768 5767 5766 5764 5763 5762 5761 5760 5760 5760 5759 5759 5759 5759 5758 5758 5759 5759 5760
5813 5811 5808 5806 5803 5801 5798 5795 5792 5790 5787 5785 5783 5781 5778 5776 5774 5772 5770 5769 5767 5765 5763 5762 5760 5759 5758 5756 5754 5753 5752 5752 5751 5751 5750 5750 5750 5750 5749 5749 5749 5750 5751
5806 5804 5801 5799 5796 5793 5791 5788 5785 5783 5780 5778 5776 5773 5771 5768 5766 5764 5762 5760 5758 5757 5755 5754 5752 5751 5749 5747 5746 5745 5744 5743 5743 5743 5742 5741 5740 5740 5740 5740 5740 5741 5741
5799 5796 5794 5792 5789 5786 5783 5780 5777 5775 5773 5770 5768 5765 5763 5761 5758 5756 5754 5752 5750 5748 5747 5745 5744 5742 5741 5739 5738 5737 5736 5735 5734 5734 5733 5732 5731 5731 5731 5731 5731 5732 5732